When you browse on this site, cookies collect data to enhance your experience and personalize the content and advertising you see.
Visit our Privacy Policy to learn more. By continuing to use the site, you agree to this use of cookies and data.
  • In United Kingdom
  • List of Countries
  • For 7 days
  • Water Temperature
  • Weather Map
  • Weather Widgets
  • user-avatar
    Login

    Hourly Weather Veszprem

    Today, 8 April, Wednesday

    Time Temperature Precipitation Wind Pressure Humidity
    00:00 +8°C° 0 mm 1 mps 752 mmHg 55%
    01:00 +7°C° 0 mm 1 mps 751 mmHg 56%
    02:00 +6°C° 0 mm 0 mps 751 mmHg 56%
    03:00 +6°C° 0 mm 0 mps 751 mmHg 56%
    04:00 +5°C° 0 mm 0 mps 751 mmHg 56%
    05:00 +7°C° 0 mm 0 mps 751 mmHg 54%
    06:00 +8°C° 0 mm 0 mps 751 mmHg 51%
    07:00 +9°C° 0 mm 0 mps 751 mmHg 49%
    08:00 +12°C° 0 mm 1 mps 751 mmHg 45%
    09:00 +14°C° 0 mm 1 mps 751 mmHg 41%
    10:00 +16°C° 0 mm 1 mps 751 mmHg 37%
    11:00 +16°C° 0 mm 1 mps 750 mmHg 36%
    12:00 +17°C° 0 mm 2 mps 750 mmHg 35%
    13:00 +18°C° 0 mm 2 mps 749 mmHg 34%
    14:00 +18°C° 0 mm 2 mps 749 mmHg 35%
    15:00 +19°C° 0 mm 1 mps 748 mmHg 35%
    16:00 +19°C° 0 mm 1 mps 748 mmHg 36%
    17:00 +16°C° 0 mm 1 mps 747 mmHg 41%
    18:00 +14°C° 0 mm 1 mps 747 mmHg 46%
    19:00 +12°C° 0 mm 1 mps 747 mmHg 50%
    20:00 +10°C° 0 mm 0 mps 747 mmHg 52%
    21:00 +10°C° 0 mm 0 mps 747 mmHg 53%
    22:00 +9°C° 0 mm 0 mps 747 mmHg 54%
    23:00 +10°C° 0 mm 1 mps 747 mmHg 55%

    Tomorrow, 9 April, Thursday

    Time Temperature Precipitation Wind Pressure Humidity
    00:00 +9°C° 0 mm 1 mps 747 mmHg 56%
    01:00 +9°C° 0 mm 1 mps 746 mmHg 57%
    02:00 +9°C° 0 mm 1 mps 746 mmHg 58%
    03:00 +8°C° 0 mm 1 mps 746 mmHg 59%
    04:00 +7°C° 0 mm 0 mps 745 mmHg 61%
    05:00 +8°C° 0 mm 0 mps 745 mmHg 58%
    06:00 +9°C° 0 mm 0 mps 745 mmHg 56%
    07:00 +10°C° 0 mm 0 mps 746 mmHg 54%
    08:00 +13°C° 0 mm 1 mps 746 mmHg 49%
    09:00 +15°C° 0 mm 1 mps 746 mmHg 44%
    10:00 +17°C° 0 mm 2 mps 746 mmHg 39%
    11:00 +17°C° 0 mm 2 mps 745 mmHg 37%
    12:00 +18°C° 0 mm 2 mps 745 mmHg 35%
    13:00 +19°C° 0 mm 3 mps 745 mmHg 33%
    14:00 +19°C° 0 mm 3 mps 744 mmHg 33%
    15:00 +19°C° 0 mm 2 mps 744 mmHg 34%
    16:00 +19°C° 0 mm 2 mps 743 mmHg 35%
    17:00 +17°C° 0 mm 2 mps 743 mmHg 42%
    18:00 +15°C° 0 mm 1 mps 743 mmHg 49%
    19:00 +13°C° 0 mm 1 mps 743 mmHg 55%
    20:00 +13°C° 0 mm 1 mps 743 mmHg 56%
    21:00 +13°C° 0 mm 1 mps 744 mmHg 57%
    22:00 +12°C° 0 mm 2 mps 744 mmHg 58%
    23:00 +12°C° 0 mm 2 mps 744 mmHg 61%

    Day after tomorrow, 10 April, Friday

    Time Temperature Precipitation Wind Pressure Humidity
    00:00 +10°C° 0 mm 2 mps 744 mmHg 64%
    01:00 +9°C° 0 mm 2 mps 744 mmHg 67%
    02:00 +9°C° 0 mm 2 mps 744 mmHg 68%
    03:00 +9°C° 0 mm 2 mps 744 mmHg 70%
    04:00 +9°C° 0 mm 2 mps 744 mmHg 72%
    05:00 +9°C° 0 mm 2 mps 744 mmHg 71%
    06:00 +10°C° 0 mm 3 mps 745 mmHg 71%
    07:00 +11°C° 0 mm 3 mps 745 mmHg 71%
    08:00 +13°C° 0 mm 3 mps 745 mmHg 65%
    09:00 +15°C° 0 mm 4 mps 745 mmHg 59%
    10:00 +16°C° 0 mm 5 mps 746 mmHg 53%
    11:00 +17°C° 0 mm 5 mps 745 mmHg 50%
    12:00 +17°C° 0 mm 5 mps 745 mmHg 47%
    13:00 +19°C° 0 mm 5 mps 745 mmHg 45%
    14:00 +17°C° 0 mm 5 mps 745 mmHg 46%
    15:00 +18°C° 0 mm 4 mps 744 mmHg 47%
    16:00 +18°C° 0 mm 4 mps 744 mmHg 48%
    17:00 +16°C° 0 mm 3 mps 744 mmHg 54%
    18:00 +13°C° 0 mm 3 mps 744 mmHg 60%
    19:00 +13°C° 0 mm 2 mps 744 mmHg 66%
    20:00 +12°C° 0 mm 2 mps 744 mmHg 67%
    21:00 +10°C° 0 mm 2 mps 744 mmHg 69%
    22:00 +10°C° 0 mm 2 mps 745 mmHg 70%
    23:00 +9°C° 0 mm 2 mps 745 mmHg 70%

    11 April, Saturday

    Time Temperature Precipitation Wind Pressure Humidity
    00:00 +10°C° 0 mm 1 mps 745 mmHg 69%
    01:00 +9°C° 0 mm 1 mps 745 mmHg 69%
    02:00 +9°C° 0 mm 1 mps 745 mmHg 69%
    03:00 +9°C° 0 mm 1 mps 745 mmHg 69%
    04:00 +8°C° 0 mm 1 mps 745 mmHg 69%
    05:00 +9°C° 0 mm 1 mps 745 mmHg 67%
    06:00 +10°C° 0 mm 1 mps 745 mmHg 64%
    07:00 +10°C° 0 mm 1 mps 746 mmHg 62%
    08:00 +12°C° 0 mm 1 mps 746 mmHg 57%
    09:00 +13°C° 0 mm 1 mps 746 mmHg 52%
    10:00 +15°C° 0 mm 2 mps 746 mmHg 47%
    11:00 +16°C° 0 mm 2 mps 746 mmHg 46%
    12:00 +17°C° 0 mm 2 mps 745 mmHg 44%
    13:00 +17°C° 0 mm 2 mps 745 mmHg 43%
    14:00 +17°C° 0 mm 2 mps 745 mmHg 44%
    15:00 +17°C° 0 mm 2 mps 744 mmHg 45%
    16:00 +17°C° 0 mm 2 mps 744 mmHg 46%
    17:00 +15°C° 0 mm 2 mps 744 mmHg 51%
    18:00 +14°C° 0 mm 1 mps 744 mmHg 57%
    19:00 +12°C° 0 mm 1 mps 744 mmHg 62%
    20:00 +11°C° 0 mm 1 mps 744 mmHg 62%
    21:00 +11°C° 0 mm 1 mps 744 mmHg 63%
    22:00 +10°C° 0 mm 1 mps 744 mmHg 63%
    23:00 +10°C° 0 mm 1 mps 744 mmHg 64%

    12 April, Sunday

    Time Temperature Precipitation Wind Pressure Humidity
    00:00 +10°C° 0 mm 1 mps 744 mmHg 64%
    01:00 +9°C° 0 mm 1 mps 744 mmHg 64%
    02:00 +9°C° 0 mm 1 mps 744 mmHg 64%
    03:00 +9°C° 0 mm 1 mps 744 mmHg 64%
    04:00 +9°C° 0 mm 1 mps 744 mmHg 63%
    05:00 +10°C° 0 mm 1 mps 744 mmHg 63%
    06:00 +11°C° 0 mm 1 mps 744 mmHg 62%
    07:00 +12°C° 0 mm 2 mps 744 mmHg 61%
    08:00 +13°C° 0 mm 2 mps 744 mmHg 56%
    09:00 +14°C° 0 mm 3 mps 743 mmHg 52%
    10:00 +16°C° 0 mm 3 mps 743 mmHg 47%
    11:00 +17°C° 0 mm 3 mps 743 mmHg 46%
    12:00 +18°C° 0 mm 3 mps 742 mmHg 45%
    13:00 +19°C° 0 mm 3 mps 742 mmHg 44%
    14:00 +19°C° 0 mm 3 mps 741 mmHg 45%
    15:00 +18°C° 0 mm 3 mps 741 mmHg 46%
    16:00 +18°C° 0 mm 4 mps 740 mmHg 47%
    17:00 +17°C° 0 mm 3 mps 739 mmHg 52%
    18:00 +14°C° 0 mm 3 mps 739 mmHg 57%
    19:00 +13°C° 0 mm 3 mps 739 mmHg 62%
    20:00 +12°C° 0 mm 3 mps 738 mmHg 64%
    21:00 +11°C° 0 mm 3 mps 738 mmHg 65%
    22:00 +11°C° 0 mm 3 mps 738 mmHg 66%
    23:00 +11°C° 0 mm 3 mps 738 mmHg 65%

    13 April, Monday

    Time Temperature Precipitation Wind Pressure Humidity
    00:00 +11°C° 0 mm 3 mps 738 mmHg 65%
    01:00 +11°C° 0 mm 3 mps 737 mmHg 64%
    02:00 +10°C° 0 mm 3 mps 737 mmHg 67%
    03:00 +10°C° 0 mm 3 mps 737 mmHg 69%
    04:00 +9°C° 0 mm 3 mps 736 mmHg 72%
    05:00 +10°C° 0 mm 3 mps 736 mmHg 70%
    06:00 +11°C° 0 mm 4 mps 736 mmHg 69%
    07:00 +12°C° 0 mm 4 mps 737 mmHg 67%
    08:00 +14°C° 0 mm 5 mps 737 mmHg 61%
    09:00 +16°C° 0 mm 6 mps 737 mmHg 54%
    10:00 +18°C° 0 mm 7 mps 737 mmHg 47%
    11:00 +18°C° 0 mm 7 mps 736 mmHg 44%
    12:00 +20°C° 0 mm 8 mps 736 mmHg 40%
    13:00 +21°C° 0 mm 8 mps 736 mmHg 37%
    14:00 +20°C° 0 mm 8 mps 735 mmHg 38%
    15:00 +20°C° 0 mm 8 mps 735 mmHg 39%
    16:00 +20°C° 0 mm 8 mps 734 mmHg 39%
    17:00 +17°C° 0 mm 7 mps 734 mmHg 42%
    18:00 +16°C° 0 mm 6 mps 734 mmHg 45%
    19:00 +14°C° 0 mm 6 mps 734 mmHg 49%
    20:00 +14°C° 0 mm 5 mps 735 mmHg 50%
    21:00 +13°C° 0 mm 5 mps 735 mmHg 51%
    22:00 +13°C° 0 mm 4 mps 736 mmHg 52%
    23:00 +12°C° 0.3 mm 3 mps 736 mmHg 61%
    Show more